Terminal Aerodrome Forecast
Issued by NWS Norman, OK

Home | Current Version | Previous Version | Text Only | Print | Product List | Glossary On
Versions: 1 2 3 4 5 6 7 8 9 10 11 12 13 14 15 16 17 18 19 20 21 22 23 24 25 26 27 28 29 30
000
FTUS44 KOUN 212326
TAFOKC
TAF
KOKC 212326Z 2200/2224 17014G22KT P6SM SKC
     FM220100 16011KT P6SM SKC
     FM221500 19017G22KT P6SM SCT250=

USA.gov is the U.S. government's official web portal to all federal, state and local government web resources and services.